Tracking 18851 objects as of 25-Nov-2017
HD Live streaming from Space Station
objects crossing your sky now

FENGYUN 1C DEB

Track FENGYUN 1C DEB now!
10-day predictions


NORAD ID: 31430
Int'l Code: 1999-025BTS
Perigee: 823.4 km
Apogee: 868.6 km
Inclination: 99.0 °
Period: 101.7 minutes
Semi major axis: 7216 km
RCS: 0.011 m2 (small)
Launch date: May 10, 1999
Source: People's Republic of China (PRC)
Launch site: Taiyaun Space Center, China (TSC)

Note: This is SATELLITE DEBRIS
aabbcc
Your satellite tracking list
Your tracking list is empty




NASA's NSSDC Master Catalog

Two Line Element Set (TLE):
1 31430U 99025BTS 17328.61117927  .00000466  00000-0  25808-3 0  9993
2 31430  99.0079 347.5504 0031336 168.8385 320.0606 14.16020860544996
Source of the keplerian elements: AFSPC